Location: Newark
(34.9471°N, 136.1778°E)
Time: 12:42:35
(UTC+00:00)

XW-2C - Pass Details

Date: 23 February 2020
Orbit: 509 x 527 km, 97.5° (Epoch: 06 April)

Event Time Altitude Azimuth Distance (km) Brightness Sun altitude
Rises 09:14:25 0° 212° (SSW) 2,606 ? -6.8°
Reaches altitude 10° 09:17:52 10° 247° (WSW) 1,725 ? -7.5°
Maximum altitude 09:19:06 11° 267° (W) 1,639 ? -7.8°
Drops below altitude 10° 09:20:21 10° 287° (WNW) 1,728 ? -8.0°
Sets 09:23:50 0° 322° (NW) 2,619 ? -8.8°
